GW4862 Weather Reports


Display with metric or nautical units.
time (UTC)temp
F
wind
direction
speed
MPH
gust
MPH
rain 1hr
in
rain 24hr
in
rain mn
in
humidity
%
barometer
mb
20260505204426 60 331 1.0 1.0 0.19 0.29 0.29 90 1008.5
20260505203923 61 307 1.0 2.0 0.07 0.27 0.27 90 1008.6
20260505203419 60 317 1.0 1.0 0.12 0.26 0.26 90 1008.7
20260505202915 61 166 2.0 3.0 0.24 0.26 0.26 89 1008.6
20260505202411 61 135 2.0 3.0 0.54 0.25 0.25 88 1008.7
20260505201908 62 321 1.0 1.0 1.02 0.20 0.20 87 1008.9
20260505201405 62 322 2.0 3.0 0.90 0.17 0.17 85 1008.9
20260505200904 65 301 2.0 2.0 0.07 0.03 0.03 78 1008.7
20260505200400 67 305 1.0 1.0 0.00 0.02 0.02 70 1008.0
20260505195856 68 330 1.0 1.0 0.00 0.02 0.02 68 1008.1
20260505195353 69 316 3.0 7.0 0.00 0.02 0.02 64 1008.2
20260505194850 69 230 2.0 2.0 0.00 0.02 0.02 63 1008.3
20260505194349 69 162 4.0 4.0 0.00 0.02 0.02 63 1008.3
20260505193848 70 164 2.0 4.0 0.00 0.02 0.02 63 1008.3
20260505193346 70 152 2.0 3.0 0.00 0.02 0.02 63 1008.3
20260505192844 69 165 3.0 7.0 0.00 0.02 0.02 63 1008.4
20260505192342 69 187 3.0 4.0 0.00 0.02 0.02 64 1008.4
20260505191839 69 245 1.0 1.0 0.00 0.02 0.02 63 1008.5
20260505191338 69 329 0.0 0.0 0.00 0.02 0.02 64 1008.5
20260505190834 69 231 2.0 2.0 0.00 0.02 0.02 63 1008.4
20260505190329 69 22 2.0 3.0 0.00 0.02 0.02 64 1008.3
20260505185825 69 343 2.0 2.0 0.00 0.02 0.02 63 1008.5
20260505185322 69 179 1.0 3.0 0.00 0.02 0.02 64 1008.7
20260505184818 69 0 0.0 1.0 0.00 0.02 0.02 64 1008.6
20260505184315 69 275 2.0 3.0 0.00 0.02 0.02 64 1008.8
20260505183812 69 219 4.0 4.0 0.00 0.02 0.02 63 1008.9
20260505183309 69 82 2.0 3.0 0.00 0.02 0.02 63 1009.0
20260505182806 69 207 3.0 4.0 0.00 0.02 0.02 62 1009.1
20260505182305 69 322 1.0 2.0 0.00 0.02 0.02 63 1008.9
20260505181759 69 265 3.0 3.0 0.00 0.02 0.02 62 1009.1
20260505181257 69 192 3.0 4.0 0.00 0.02 0.02 62 1009.3
20260505180753 69 157 6.0 7.0 0.00 0.02 0.02 61 1009.2
20260505180249 68 94 3.0 3.0 0.00 0.02 0.02 63 1009.4
20260505175746 69 210 3.0 4.0 0.00 0.02 0.02 62 1009.3
20260505175243 68 202 4.0 4.0 0.00 0.02 0.02 62 1009.2
20260505174739 68 280 1.0 1.0 0.00 0.02 0.02 63 1009.3
20260505174237 68 268 3.0 4.0 0.00 0.02 0.02 62 1009.3
20260505173732 68 303 1.0 1.0 0.00 0.02 0.02 63 1009.2
20260505173229 68 162 6.0 7.0 0.00 0.02 0.02 63 1009.5
20260505172726 68 138 3.0 3.0 0.00 0.02 0.02 62 1009.3
20260505172223 68 295 0.0 1.0 0.00 0.02 0.02 63 1009.6
20260505171723 68 345 1.0 1.0 0.00 0.02 0.02 63 1009.6
20260505171220 67 319 1.0 2.0 0.00 0.02 0.02 63 1009.6
20260505170717 67 357 2.0 2.0 0.00 0.02 0.02 62 1009.5
20260505170214 67 253 1.0 2.0 0.00 0.02 0.02 61 1009.5
20260505165709 68 153 3.0 4.0 0.00 0.02 0.02 61 1009.5
20260505165205 68 270 1.0 2.0 0.00 0.02 0.02 63 1009.6
20260505164701 68 156 2.0 3.0 0.00 0.02 0.02 62 1009.5
20260505164158 67 137 2.0 3.0 0.00 0.02 0.02 63 1009.5
20260505163656 67 231 4.0 4.0 0.00 0.02 0.02 63 1009.5
20260505163154 67 328 2.0 3.0 0.00 0.02 0.02 62 1009.5
20260505162652 68 327 0.0 0.0 0.00 0.02 0.02 62 1009.5
20260505162149 68 163 2.0 4.0 0.00 0.02 0.02 63 1009.5
20260505161646 68 255 2.0 2.0 0.00 0.02 0.02 61 1009.7
20260505161143 68 156 2.0 3.0 0.00 0.02 0.02 62 1009.7
20260505160641 68 334 2.0 3.0 0.00 0.02 0.02 62 1009.5
20260505160138 67 40 2.0 3.0 0.00 0.02 0.02 63 1009.6
20260505153117 67 271 2.0 2.0 0.00 0.02 0.02 64 1009.4
20260505152614 67 278 3.0 3.0 0.00 0.02 0.02 64 1009.5
20260505152110 67 326 3.0 4.0 0.00 0.02 0.02 64 1009.3
20260505151605 66 323 1.0 1.0 0.00 0.02 0.02 64 1009.4
20260505151103 66 334 1.0 2.0 0.00 0.02 0.02 64 1009.6
20260505150559 66 270 1.0 2.0 0.00 0.02 0.02 67 1009.3
20260505140524 65 342 0.0 0.0 0.00 0.02 0.02 71 1008.5
20260505124937 61 298 1.0 2.0 0.00 0.02 0.02 81 1009.1
20260505124434 61 330 1.0 2.0 0.00 0.02 0.02 81 1009.2
20260505123930 61 327 0.0 0.0 0.00 0.02 0.02 82 1009.3
20260505123427 61 331 0.0 0.0 0.00 0.02 0.02 83 1009.3
20260505122923 61 346 0.0 0.0 0.00 0.02 0.02 84 1009.3
20260505122421 60 315 1.0 1.0 0.05 0.02 0.02 85 1009.2
20260505121917 59 145 1.0 1.0 0.05 0.02 0.02 86 1009.4
20260505121414 59 146 1.0 2.0 0.05 0.02 0.02 86 1009.4
20260505120910 58 329 0.0 1.0 0.00 0.01 0.01 88 1009.4
20260505120407 58 340 0.0 0.0 0.00 0.01 0.01 89 1009.4
20260505115905 58 335 0.0 0.0 0.00 0.01 0.01 89 1009.5
20260505115402 57 324 0.0 0.0 0.00 0.01 0.01 89 1009.6
20260505114901 57 316 1.0 1.0 0.00 0.01 0.01 89 1009.4
20260505114356 57 325 0.0 0.0 0.00 0.01 0.01 89 1009.4
20260505113853 57 334 0.0 0.0 0.00 0.01 0.01 90 1008.9
20260505113350 57 324 1.0 2.0 0.00 0.01 0.01 89 1008.6
20260505112845 57 340 0.0 0.0 0.00 0.01 0.01 89 1008.7
20260505112343 57 343 0.0 0.0 0.00 0.01 0.01 89 1008.7
20260505111839 57 343 0.0 0.0 0.07 0.01 0.01 89 1009.0
20260505111334 57 343 0.0 0.0 0.07 0.01 0.01 88 1009.0
20260505110830 57 343 1.0 1.0 0.00 0.00 0.00 88 1009.1
20260505110328 57 342 0.0 0.0 0.00 0.00 0.00 87 1008.8
20260505101803 61 250 2.0 3.0 0.00 0.00 0.00 75 1009.2
20260505101258 62 222 5.0 7.0 0.00 0.00 0.00 70 1009.3
20260505100754 62 221 2.0 3.0 0.00 0.00 0.00 68 1009.2
20260505100251 63 328 0.0 1.0 0.00 0.00 0.00 63 1009.0
20260505095747 63 323 1.0 1.0 0.00 0.00 0.00 63 1008.9
20260505095245 63 297 1.0 1.0 0.00 0.00 0.00 63 1008.7
20260505094740 63 316 1.0 2.0 0.00 0.00 0.00 62 1008.5
20260505094237 63 337 1.0 1.0 0.00 0.00 0.00 62 1008.4
20260505093733 63 329 1.0 1.0 0.00 0.00 0.00 62 1008.5
20260505093231 63 315 2.0 2.0 0.00 0.00 0.00 62 1008.4
20260505092727 63 331 0.0 0.0 0.00 0.00 0.00 61 1008.2
20260505092226 63 320 1.0 1.0 0.00 0.00 0.00 61 1008.3
20260505091723 63 317 1.0 1.0 0.00 0.00 0.00 61 1008.0
20260505091221 63 308 1.0 1.0 0.00 0.00 0.00 62 1008.2
20260505090718 63 310 1.0 1.0 0.00 0.00 0.00 62 1008.1
20260505090216 63 15 1.0 2.0 0.00 0.00 0.00 61 1007.9
20260505085713 63 284 1.0 2.0 0.00 0.00 0.00 61 1008.1
20260505085212 63 348 1.0 1.0 0.00 0.00 0.00 63 1007.8
20260505084709 63 352 0.0 1.0 0.00 0.00 0.00 62 1007.9
20260505084208 63 340 0.0 1.0 0.00 0.00 0.00 63 1007.8
20260505083704 62 348 1.0 1.0 0.00 0.00 0.00 63 1007.8
20260505083201 62 344 0.0 0.0 0.00 0.00 0.00 64 1007.8
20260505082657 62 339 0.0 1.0 0.00 0.00 0.00 63 1007.6
20260505082154 62 349 0.0 0.0 0.00 0.00 0.00 63 1007.7
20260505081650 63 10 1.0 1.0 0.00 0.00 0.00 62 1007.6
20260505081148 63 346 0.0 1.0 0.00 0.00 0.00 62 1007.5
20260505080644 63 340 0.0 0.0 0.00 0.00 0.00 62 1007.5
20260505080140 63 142 2.0 3.0 0.00 0.00 0.00 63 1007.6
20260505075636 63 315 1.0 1.0 0.00 0.00 0.00 62 1007.7
20260505075133 63 338 0.0 0.0 0.00 0.00 0.00 62 1007.6
20260505074630 63 336 0.0 0.0 0.00 0.00 0.00 63 1007.5
20260505074127 64 339 0.0 0.0 0.00 0.00 0.00 62 1007.3
20260505073625 64 329 0.0 0.0 0.00 0.00 0.00 61 1007.0
20260505073123 64 223 3.0 3.0 0.00 0.00 0.00 61 1007.1
20260505072618 64 164 2.0 2.0 0.00 0.00 0.00 60 1006.8
20260505072115 64 311 2.0 2.0 0.00 0.00 0.00 60 1006.8
20260505071611 64 332 0.0 0.0 0.00 0.00 0.00 60 1007.0
20260505071109 65 319 1.0 1.0 0.00 0.00 0.00 60 1006.9
20260505070606 65 215 3.0 3.0 0.00 0.00 0.00 60 1006.8
20260505065558 64 254 2.0 3.0 0.00 0.00 0.00 60 1006.8
20260505065054 65 323 1.0 1.0 0.00 0.00 0.00 60 1007.0
20260505064551 65 154 2.0 2.0 0.00 0.00 0.00 59 1006.8
20260505064050 65 162 5.0 7.0 0.00 0.00 0.00 60 1007.1
20260505063547 65 320 0.0 1.0 0.00 0.00 0.00 60 1006.9
20260505063042 65 223 2.0 3.0 0.00 0.00 0.00 60 1007.1
20260505062539 65 178 4.0 6.0 0.00 0.00 0.00 59 1007.0
20260505062037 65 141 2.0 3.0 0.00 0.00 0.00 60 1007.0
20260505061534 65 286 1.0 1.0 0.00 0.00 0.00 60 1006.7
20260505061032 65 184 4.0 6.0 0.00 0.00 0.00 59 1006.8
20260505060529 66 286 1.0 2.0 0.00 0.00 0.00 59 1006.8
20260505060026 65 154 5.0 6.0 0.00 0.00 0.00 59 1006.5
20260505055521 65 349 3.0 4.0 0.00 0.00 0.00 60 1006.7
20260505055018 65 228 2.0 2.0 0.00 0.00 0.00 60 1006.5
20260505054515 65 136 2.0 3.0 0.00 0.00 0.00 60 1006.6
20260505054013 65 332 1.0 2.0 0.00 0.00 0.00 61 1006.7
20260505053510 66 226 2.0 3.0 0.00 0.00 0.00 59 1006.5
20260505053007 65 255 3.0 4.0 0.00 0.00 0.00 60 1006.4
20260505052504 66 185 3.0 3.0 0.00 0.00 0.00 59 1006.6
20260505052001 66 211 1.0 3.0 0.00 0.00 0.00 60 1006.7
20260505051458 66 324 0.0 0.0 0.00 0.00 0.00 60 1006.7
20260505050956 66 8 1.0 1.0 0.00 0.00 0.00 59 1006.8
20260505050454 66 314 1.0 1.0 0.00 0.00 0.00 59 1006.8
20260505041422 67 95 2.0 3.0 0.00 0.00 0.00 59 1007.0
20260505040919 67 210 3.0 4.0 0.00 0.00 0.00 59 1007.3
20260505040416 66 316 1.0 1.0 0.00 0.00 0.00 61 1007.0
20260505035913 67 322 0.0 1.0 0.00 0.00 0.00 60 1007.1
20260505035409 67 192 2.0 2.0 0.00 0.00 0.00 60 1007.1
20260505034906 67 1 1.0 2.0 0.00 0.00 0.00 60 1007.0
20260505034403 67 266 2.0 2.0 0.00 0.00 0.00 60 1007.1
20260505033900 67 49 1.0 1.0 0.00 0.00 0.00 60 1007.0
20260505033356 68 7 1.0 2.0 0.00 0.00 0.00 59 1006.8
20260505032855 68 350 0.0 1.0 0.00 0.00 0.00 59 1006.9
20260505032351 67 52 1.0 1.0 0.00 0.00 0.00 59 1006.9
20260505031848 67 255 2.0 2.0 0.00 0.00 0.00 60 1006.9
20260505031344 67 289 1.0 1.0 0.00 0.00 0.00 59 1006.7
20260505030842 67 275 1.0 2.0 0.00 0.00 0.00 60 1006.8
20260505030338 68 154 3.0 3.0 0.00 0.00 0.00 59 1006.6
20260505025833 67 321 1.0 1.0 0.00 0.00 0.00 59 1006.7
20260505025331 67 328 1.0 1.0 0.00 0.00 0.00 59 1006.6
20260505024829 66 351 1.0 1.0 0.00 0.00 0.00 60 1006.5
20260505024327 66 349 0.0 0.0 0.00 0.00 0.00 62 1006.7
20260505023824 66 6 1.0 1.0 0.00 0.00 0.00 61 1006.5
20260505023321 66 344 0.0 1.0 0.00 0.00 0.00 60 1006.4
20260505022818 66 347 1.0 1.0 0.00 0.00 0.00 61 1006.5
20260505022315 66 358 1.0 1.0 0.00 0.00 0.00 60 1006.5
20260505021812 65 345 0.0 0.0 0.00 0.00 0.00 62 1006.4
20260505021309 66 348 0.0 0.0 0.00 0.00 0.00 61 1006.1
20260505020804 66 349 0.0 0.0 0.00 0.00 0.00 61 1006.2
20260505020300 66 346 0.0 0.0 0.00 0.00 0.00 61 1006.3
20260505015757 66 342 0.0 0.0 0.00 0.00 0.00 60 1006.0
20260505015254 66 359 0.0 0.0 0.00 0.00 0.00 60 1006.2
20260505014751 67 350 0.0 0.0 0.00 0.00 0.00 60 1005.9
20260505014249 67 346 0.0 0.0 0.00 0.00 0.00 59 1006.0
20260505013745 67 348 0.0 1.0 0.00 0.00 0.00 59 1006.2
20260505013242 67 354 0.0 0.0 0.00 0.00 0.00 59 1005.9
20260505012741 68 346 0.0 1.0 0.00 0.00 0.00 57 1006.0
20260505012238 68 0 0.0 0.0 0.00 0.00 0.00 57 1005.9
20260505011733 68 353 0.0 0.0 0.00 0.00 0.00 58 1005.9
20260505011231 69 347 0.0 0.0 0.00 0.00 0.00 56 1005.8
20260505010726 69 280 1.0 2.0 0.00 0.00 0.00 57 1005.7
20260505010223 69 351 0.0 1.0 0.00 0.00 0.00 56 1005.9
20260505005719 69 348 1.0 1.0 0.00 0.00 0.00 55 1005.7
20260505005216 70 297 1.0 1.0 0.00 0.00 0.00 55 1005.8
20260505004713 70 339 1.0 1.0 0.00 0.00 0.00 53 1005.8
20260505004210 70 339 0.0 0.0 0.00 0.00 0.00 53 1005.8
20260505003707 70 93 2.0 2.0 0.00 0.00 0.00 53 1005.7
20260505003205 71 353 1.0 1.0 0.00 0.00 0.00 53 1005.7
20260505002701 71 207 2.0 3.0 0.00 0.00 0.00 52 1005.8
20260505002159 71 342 1.0 1.0 0.00 0.00 0.00 51 1005.7
20260505001655 71 27 1.0 1.0 0.00 0.00 0.00 51 1005.9
20260505001153 72 156 2.0 3.0 0.00 0.00 0.00 49 1005.9
20260505000650 71 206 2.0 3.0 0.00 0.00 0.00 49 1006.1
20260505000148 71 323 1.0 1.0 0.00 0.00 0.00 50 1006.0
20260504235644 72 356 0.0 1.0 0.00 0.00 0.00 49 1006.2
20260504235140 72 315 0.0 1.0 0.00 0.00 0.00 50 1006.2
20260504234638 72 13 1.0 1.0 0.00 0.00 0.00 49 1006.2
20260504234135 73 263 2.0 2.0 0.00 0.00 0.00 47 1006.2
20260504233631 73 62 1.0 1.0 0.00 0.00 0.00 48 1006.4
20260504233127 74 312 0.0 1.0 0.00 0.00 0.00 47 1006.3
20260504232625 74 193 3.0 3.0 0.00 0.00 0.00 46 1006.3
20260504232121 75 173 2.0 3.0 0.00 0.00 0.00 47 1006.4
20260504231618 75 242 2.0 2.0 0.00 0.00 0.00 45 1006.3
20260504231114 75 309 2.0 3.0 0.00 0.00 0.00 46 1006.4
20260504230610 74 108 2.0 2.0 0.00 0.00 0.00 46 1006.3
20260504230109 74 38 2.0 2.0 0.00 0.00 0.00 46 1006.4
20260504225607 75 152 4.0 6.0 0.00 0.00 0.00 45 1006.4
20260504225103 75 270 3.0 3.0 0.00 0.00 0.00 46 1006.6
20260504224600 75 183 3.0 6.0 0.00 0.00 0.00 45 1006.7
20260504224057 74 178 7.0 11.0 0.00 0.00 0.00 46 1006.3
20260504223554 74 192 3.0 3.0 0.00 0.00 0.00 50 1006.5
20260504223050 75 232 3.0 3.0 0.00 0.00 0.00 50 1006.5
20260504222547 75 72 1.0 2.0 0.00 0.00 0.00 53 1006.3
20260504222044 74 342 1.0 1.0 0.00 0.00 0.00 52 1006.5
20260504221542 74 255 2.0 2.0 0.00 0.00 0.00 51 1006.5
20260504221038 74 294 1.0 1.0 0.00 0.00 0.00 52 1006.7
20260504220534 74 0 1.0 1.0 0.00 0.00 0.00 52 1006.9
20260504220032 74 273 2.0 2.0 0.00 0.00 0.00 50 1006.8
20260504215528 75 3 1.0 2.0 0.00 0.00 0.00 52 1007.0
20260504215026 75 307 1.0 2.0 0.00 0.00 0.00 50 1006.8
20260504214521 75 301 1.0 2.0 0.00 0.00 0.00 50 1006.9
20260504214018 75 245 2.0 2.0 0.00 0.00 0.00 49 1007.0
20260504213514 75 282 2.0 3.0 0.00 0.00 0.00 50 1007.1
20260504213012 75 325 0.0 0.0 0.00 0.00 0.00 50 1007.0
20260504212507 75 327 0.0 0.0 0.00 0.00 0.00 51 1007.1
20260504212005 75 295 1.0 2.0 0.00 0.00 0.00 50 1007.1
20260504211501 74 226 4.0 6.0 0.00 0.00 0.00 49 1007.3
20260504210959 75 113 2.0 3.0 0.00 0.00 0.00 51 1007.5
20260504210456 74 266 2.0 2.0 0.00 0.00 0.00 51 1007.4
20260504205952 75 148 2.0 3.0 0.00 0.00 0.00 51 1007.4
20260504205450 76 168 2.0 3.0 0.00 0.00 0.00 48 1007.5
20260504204948 77 306 0.0 1.0 0.00 0.00 0.00 47 1007.6